Zurück zum Katalog

STARLINK-34948

AktivKommunikationSSO
NORAD 65191·PAYLOAD·🇺🇸 United States

Gestartet Aug 14, 2025 von Vandenberg Space Force Base

Loading…

Nächste Überflüge (nächste 24 Stunden)

TLE

AktuellSource: CelesTrak SupGP

Epoche: Sep 15, 2026, 02:42 UTC

1 65191C 25175T   26258.11298611  .00042973  00000+0  13335-2 0  2583
2 65191  97.2844 127.2104 0001796  93.1501 139.8350 15.33429150    10

Verfolge STARLINK-34948 in Echtzeit mit AllMySat

Download on the App Store